IEDINB57 Weather Reports


time (UTC)temp
C
wind
direction
speed
KPH
gust
KPH
rain 1hr
cm
rain 24hr
cm
rain mn
cm
humidity
%
barometer
mb
20260508143111 12 215 3.2 16.1 0.00 0.00 0.00 53 1017.8
20260508142547 12 263 6.4 16.1 0.00 0.00 0.00 53 1017.8
20260508142051 12 209 4.8 16.1 0.00 0.00 0.00 53 1017.8
20260508141602 12 232 8.0 16.1 0.00 0.00 0.00 53 1017.8
20260508141047 12 223 3.2 12.9 0.00 0.00 0.00 55 1017.9
20260508140547 12 215 6.4 12.9 0.00 0.00 0.00 54 1017.8
20260508140056 11 229 3.2 17.7 0.00 0.00 0.00 55 1017.7
20260508135548 11 240 6.4 17.7 0.00 0.00 0.00 55 1017.8
20260508135052 11 246 8.0 17.7 0.00 0.00 0.00 54 1017.8
20260508134557 11 229 6.4 16.1 0.00 0.00 0.00 55 1017.6
20260508134052 11 248 6.4 16.1 0.00 0.00 0.00 54 1017.8
20260508133548 11 246 6.4 16.1 0.00 0.00 0.00 55 1017.7
20260508133116 11 253 8.0 16.1 0.00 0.00 0.00 55 1017.6
20260508132548 11 192 8.0 17.7 0.00 0.00 0.00 55 1017.6
20260508132048 11 235 6.4 17.7 0.00 0.00 0.00 55 1017.7
20260508131552 11 234 8.0 20.9 0.00 0.00 0.00 56 1017.6
20260508131048 11 225 9.7 20.9 0.00 0.00 0.00 57 1017.6
20260508130548 11 211 4.8 16.1 0.00 0.00 0.00 58 1017.6
20260508130055 11 254 6.4 16.1 0.00 0.00 0.00 58 1017.5
20260508125550 11 242 4.8 20.9 0.00 0.00 0.00 58 1017.4
20260508125048 12 226 8.0 20.9 0.00 0.00 0.00 58 1017.4
20260508124554 12 196 9.7 19.3 0.00 0.00 0.00 58 1017.4
20260508124048 11 246 8.0 19.3 0.00 0.00 0.00 59 1017.4
20260508123548 11 252 4.8 25.7 0.00 0.00 0.00 59 1017.5
20260508123100 11 292 11.3 25.7 0.00 0.00 0.00 58 1017.3
20260508122548 12 213 12.9 25.7 0.00 0.00 0.00 57 1017.3
20260508122049 11 251 6.4 19.3 0.00 0.00 0.00 59 1017.3
20260508121554 11 254 9.7 19.3 0.00 0.00 0.00 58 1017.3
20260508121048 11 242 6.4 17.7 0.00 0.00 0.00 59 1017.2
20260508120548 11 265 8.0 14.5 0.00 0.00 0.00 61 1017.3
20260508120059 11 244 6.4 14.5 0.00 0.00 0.00 62 1017.2
20260508115548 11 252 4.8 14.5 0.00 0.00 0.00 64 1017.2
20260508115047 10 240 8.0 16.1 0.00 0.00 0.00 64 1017.2
20260508114552 10 260 6.4 17.7 0.00 0.00 0.00 63 1017.2
20260508114049 10 247 9.7 19.3 0.00 0.00 0.00 63 1017.0
20260508113548 10 233 11.3 19.3 0.00 0.00 0.00 63 1017.0
20260508113112 11 273 9.7 17.7 0.00 0.00 0.00 62 1017.0
20260508112548 11 237 6.4 16.1 0.00 0.00 0.00 63 1016.9
20260508112048 11 278 4.8 16.1 0.00 0.00 0.00 63 1016.8
20260508111605 11 360 6.4 16.1 0.00 0.00 0.00 62 1016.9
20260508111048 11 259 6.4 16.1 0.00 0.00 0.00 62 1016.9
20260508110550 11 260 8.0 16.1 0.00 0.00 0.00 63 1016.9
20260508110059 10 234 8.0 16.1 0.00 0.00 0.00 63 1016.9
20260508105548 10 247 4.8 14.5 0.00 0.00 0.00 64 1016.8
20260508105046 10 231 6.4 14.5 0.00 0.00 0.00 64 1016.7
20260508104552 10 252 6.4 14.5 0.00 0.00 0.00 65 1016.8
20260508104048 10 305 4.8 14.5 0.00 0.00 0.00 64 1016.7
20260508103549 10 266 4.8 17.7 0.00 0.00 0.00 64 1016.7
20260508103058 10 202 6.4 17.7 0.00 0.00 0.00 65 1016.6
20260508102547 10 234 8.0 17.7 0.00 0.00 0.00 65 1016.7
20260508102048 10 258 11.3 19.3 0.00 0.00 0.00 64 1016.6
20260508101600 10 260 11.3 19.3 0.00 0.00 0.00 64 1016.6
20260508101047 11 254 8.0 19.3 0.00 0.00 0.00 65 1016.6
20260508100547 10 223 8.0 16.1 0.00 0.00 0.00 66 1016.5
20260508100053 10 240 8.0 17.7 0.00 0.00 0.00 67 1016.5
20260508095547 10 249 9.7 20.9 0.00 0.00 0.00 68 1016.5
20260508095048 9 244 9.7 20.9 0.00 0.00 0.00 69 1016.4
20260508094552 9 262 9.7 20.9 0.00 0.00 0.00 69 1016.4
20260508094048 9 246 8.0 19.3 0.00 0.00 0.00 70 1016.5
20260508093550 9 244 11.3 19.3 0.00 0.00 0.00 70 1016.5
20260508093052 9 250 8.0 20.9 0.00 0.00 0.00 70 1016.3
20260508092551 8 261 9.7 20.9 0.00 0.00 0.00 70 1016.4
20260508092049 9 236 11.3 20.9 0.00 0.00 0.00 70 1016.3
20260508091606 9 244 9.7 19.3 0.00 0.00 0.00 70 1016.4
20260508091050 9 247 6.4 16.1 0.00 0.00 0.00 72 1016.4
20260508090550 8 263 9.7 20.9 0.00 0.00 0.00 72 1016.3
20260508090109 8 250 8.0 20.9 0.00 0.00 0.00 71 1016.4
20260508085549 8 242 9.7 20.9 0.00 0.00 0.00 71 1016.3
20260508085049 9 244 6.4 25.7 0.00 0.00 0.00 71 1016.3
20260508084553 9 232 9.7 25.7 0.00 0.00 0.00 71 1016.3
20260508084050 9 213 9.7 19.3 0.00 0.00 0.00 71 1016.2
20260508083550 9 234 8.0 20.9 0.00 0.00 0.00 71 1016.1
20260508083054 8 245 9.7 20.9 0.00 0.00 0.00 72 1016.1
20260508082549 8 227 8.0 19.3 0.00 0.00 0.00 73 1016.0
20260508082049 8 275 8.0 19.3 0.00 0.00 0.00 74 1016.0
20260508081602 8 240 9.7 20.9 0.00 0.00 0.00 74 1015.9
20260508081049 8 252 12.9 20.9 0.00 0.00 0.00 74 1015.9
20260508080549 8 277 8.0 19.3 0.00 0.00 0.00 75 1015.8
20260508080050 8 240 6.4 19.3 0.00 0.00 0.00 75 1015.7
20260508075549 8 216 11.3 19.3 0.00 0.00 0.00 75 1015.6
20260508075050 8 236 6.4 17.7 0.00 0.00 0.00 75 1015.8
20260508074552 8 244 8.0 17.7 0.00 0.00 0.00 75 1015.7
20260508074049 8 244 6.4 12.9 0.00 0.00 0.00 75 1015.6
20260508073550 8 191 3.2 14.5 0.00 0.00 0.00 76 1015.5
20260508073104 8 227 6.4 19.3 0.00 0.00 0.00 76 1015.4
20260508072549 8 219 8.0 19.3 0.00 0.00 0.00 76 1015.4
20260508072049 8 242 6.4 14.5 0.00 0.00 0.00 77 1015.4
20260508071558 8 225 6.4 14.5 0.00 0.00 0.00 78 1015.3
20260508071049 8 201 3.2 9.7 0.00 0.00 0.00 80 1015.2
20260508070549 8 192 4.8 9.7 0.00 0.00 0.00 80 1015.2
20260508070053 8 214 3.2 9.7 0.00 0.00 0.00 80 1015.3
20260508065548 7 184 3.2 9.7 0.00 0.00 0.00 80 1015.1
20260508065049 7 180 3.2 9.7 0.00 0.00 0.00 80 1015.1
20260508064554 7 205 4.8 9.7 0.00 0.00 0.00 81 1015.0
20260508064048 7 165 1.6 9.7 0.00 0.00 0.00 81 1015.0
20260508063549 7 179 3.2 11.3 0.00 0.00 0.00 81 1015.1
20260508063053 7 189 3.2 11.3 0.00 0.00 0.00 81 1014.9
20260508062545 7 175 3.2 11.3 0.00 0.00 0.00 81 1014.9
20260508062048 7 208 4.8 14.5 0.00 0.00 0.00 81 1014.9
20260508061552 7 215 3.2 14.5 0.00 0.00 0.00 81 1014.8
20260508061051 7 205 4.8 14.5 0.00 0.00 0.00 81 1014.7
20260508060550 7 193 3.2 11.3 0.00 0.00 0.00 81 1014.7
20260508060052 7 211 3.2 11.3 0.00 0.00 0.00 81 1014.7
20260508055551 7 203 6.4 12.9 0.00 0.00 0.00 81 1014.6
20260508055049 7 180 4.8 12.9 0.00 0.00 0.00 81 1014.5
20260508054553 7 200 6.4 12.9 0.00 0.00 0.00 80 1014.4
20260508054050 7 194 4.8 14.5 0.00 0.00 0.00 80 1014.4
20260508053550 7 202 4.8 16.1 0.00 0.00 0.00 80 1014.3
20260508053114 7 206 6.4 16.1 0.00 0.00 0.00 80 1014.2
20260508052549 7 186 8.0 14.5 0.00 0.00 0.00 80 1014.2
20260508052047 7 200 6.4 16.1 0.00 0.00 0.00 80 1014.1
20260508051552 7 173 4.8 16.1 0.00 0.00 0.00 80 1014.2
20260508051050 7 194 4.8 16.1 0.00 0.00 0.00 80 1014.1
20260508050546 7 192 8.0 16.1 0.00 0.00 0.00 80 1014.1
20260508050051 7 181 4.8 16.1 0.00 0.00 0.00 80 1014.0
20260508045545 7 221 6.4 19.3 0.00 0.00 0.00 80 1014.0
20260508045049 7 204 6.4 19.3 0.00 0.00 0.00 80 1013.9
20260508044551 7 198 6.4 14.5 0.00 0.00 0.00 81 1014.0
20260508044050 6 199 3.2 12.9 0.00 0.00 0.00 81 1013.8
20260508043549 6 188 3.2 12.9 0.00 0.00 0.00 81 1013.8
20260508043050 6 178 3.2 12.9 0.00 0.00 0.00 81 1013.8
20260508042549 7 199 3.2 20.9 0.00 0.00 0.00 80 1013.8
20260508042050 6 182 6.4 20.9 0.00 0.00 0.00 80 1013.8
20260508041613 7 206 6.4 17.7 0.00 0.00 0.00 80 1013.6
20260508041049 7 175 4.8 16.1 0.00 0.00 0.00 80 1013.6
20260508040548 6 198 4.8 16.1 0.00 0.00 0.00 79 1013.7
20260508040107 7 124 3.2 16.1 0.00 0.00 0.00 79 1013.5
20260508035546 6 205 4.8 16.1 0.00 0.00 0.00 79 1013.7
20260508035046 6 196 4.8 11.3 0.00 0.00 0.00 79 1013.5
20260508034551 6 230 3.2 11.3 0.00 0.00 0.00 79 1013.5
20260508034052 6 221 3.2 11.3 0.00 0.00 0.00 79 1013.6
20260508033545 6 220 4.8 19.3 0.00 0.00 0.00 78 1013.6
20260508033051 6 192 4.8 19.3 0.00 0.00 0.00 78 1013.5
20260508032549 6 184 8.0 17.7 0.00 0.00 0.00 78 1013.5
20260508032050 6 235 8.0 17.7 0.00 0.00 0.00 78 1013.4
20260508031554 6 189 8.0 17.7 0.00 0.00 0.00 78 1013.5
20260508031051 6 232 8.0 17.7 0.00 0.00 0.00 77 1013.4
20260508030549 6 229 6.4 12.9 0.00 0.00 0.00 77 1013.4
20260508030050 6 222 4.8 17.7 0.00 0.00 0.00 77 1013.5
20260508025549 6 213 4.8 17.7 0.00 0.00 0.00 76 1013.6
20260508025050 6 209 8.0 17.7 0.00 0.00 0.00 76 1013.5
20260508024604 6 225 8.0 17.7 0.00 0.00 0.00 75 1013.5
20260508024048 6 223 6.4 20.9 0.00 0.00 0.00 75 1013.3
20260508023549 6 235 9.7 20.9 0.00 0.00 0.00 74 1013.4
20260508023051 6 202 8.0 22.5 0.00 0.00 0.00 74 1013.4
20260508022553 6 214 11.3 24.1 0.00 0.00 0.00 74 1013.5
20260508022049 7 223 11.3 24.1 0.00 0.00 0.00 73 1013.4
20260508021552 7 196 11.3 24.1 0.00 0.00 0.00 72 1013.4
20260508021048 7 175 11.3 24.1 0.00 0.00 0.00 72 1013.3
20260508020549 7 198 11.3 24.1 0.00 0.00 0.00 71 1013.4
20260508020055 7 221 9.7 24.1 0.00 0.00 0.00 70 1013.4
20260508015549 7 215 9.7 24.1 0.00 0.00 0.00 69 1013.4
20260508015049 7 231 11.3 24.1 0.00 0.00 0.00 68 1013.4
20260508014551 7 225 11.3 24.1 0.00 0.00 0.00 67 1013.3
20260508014051 7 202 11.3 24.1 0.00 0.00 0.00 67 1013.3
20260508013549 7 234 11.3 24.1 0.00 0.00 0.00 68 1013.3
20260508013055 7 165 8.0 22.5 0.00 0.00 0.00 69 1013.2
20260508012549 7 213 9.7 22.5 0.00 0.00 0.00 70 1013.2
20260508012046 7 179 9.7 24.1 0.00 0.00 0.00 71 1013.3
20260508011600 7 243 11.3 24.1 0.00 0.00 0.00 72 1013.3
20260508011045 7 194 6.4 20.9 0.00 0.00 0.00 73 1013.2
20260508010549 7 213 6.4 20.9 0.00 0.00 0.00 73 1013.0
20260508010056 7 195 8.0 19.3 0.00 0.00 0.00 73 1013.1
20260508005549 7 191 8.0 19.3 0.00 0.00 0.00 73 1013.0
20260508005046 7 203 8.0 22.5 0.00 0.00 0.00 73 1013.0
20260508004557 7 196 6.4 22.5 0.00 0.00 0.00 73 1013.1
20260508004046 7 176 6.4 19.3 0.00 0.00 0.00 73 1013.0
20260508003549 7 175 8.0 20.9 0.00 0.00 0.00 73 1013.1
20260508003105 7 245 8.0 20.9 0.00 0.00 0.00 73 1013.1
20260508002550 7 202 8.0 17.7 0.00 0.00 0.00 73 1013.0
20260508002049 7 200 9.7 19.3 0.00 0.00 0.00 72 1013.1
20260508001553 7 206 6.4 19.3 0.00 0.00 0.00 72 1013.1
20260508001048 7 188 6.4 16.1 0.00 0.00 0.00 72 1013.2
20260508000548 7 192 6.4 19.3 0.00 0.00 0.00 72 1013.1
20260508000052 7 183 4.8 19.3 0.00 0.00 0.00 72 1013.2
20260507235547 7 210 6.4 17.7 0.00 0.00 0.00 72 1013.4
20260507235049 7 205 8.0 19.3 0.00 0.00 0.00 72 1013.3
20260507234557 7 217 9.7 19.3 0.00 0.00 0.00 72 1013.2
20260507234048 7 186 9.7 20.9 0.00 0.00 0.00 72 1013.3
20260507233548 7 236 9.7 24.1 0.00 0.00 0.00 72 1013.0
20260507233102 7 209 9.7 24.1 0.00 0.00 0.00 72 1012.9
20260507232547 7 219 8.0 24.1 0.00 0.00 0.00 72 1013.1
20260507232047 7 193 11.3 24.1 0.00 0.00 0.00 72 1013.0
20260507231554 7 200 6.4 19.3 0.00 0.00 0.00 72 1013.0
20260507231049 7 222 8.0 20.9 0.00 0.00 0.00 72 1013.0
20260507230548 7 196 11.3 24.1 0.00 0.00 0.00 72 1012.9
20260507230054 7 192 9.7 24.1 0.00 0.00 0.00 72 1012.9
20260507225547 7 210 6.4 17.7 0.00 0.00 0.00 72 1013.1
20260507225051 7 178 8.0 24.1 0.00 0.00 0.00 72 1013.0
20260507224558 7 208 9.7 25.7 0.00 0.00 0.00 72 1012.9
20260507224048 7 192 11.3 25.7 0.00 0.00 0.00 72 1012.8
20260507223547 7 203 8.0 20.9 0.00 0.00 0.00 72 1012.8
20260507223052 7 179 8.0 19.3 0.00 0.00 0.00 72 1012.9
20260507222549 7 196 8.0 20.9 0.00 0.00 0.00 72 1012.9
20260507222048 7 221 8.0 20.9 0.00 0.00 0.00 72 1012.9
20260507221553 7 124 8.0 22.5 0.00 0.00 0.00 72 1012.8
20260507221047 7 190 6.4 22.5 0.00 0.00 0.00 72 1012.9
20260507220547 7 180 8.0 22.5 0.00 0.00 0.00 72 1012.8
20260507220056 7 195 8.0 20.9 0.00 0.00 0.00 72 1012.9
20260507215550 7 194 8.0 20.9 0.00 0.00 0.00 72 1012.8
20260507215047 7 192 8.0 22.5 0.00 0.00 0.00 72 1012.8
20260507214604 7 214 8.0 22.5 0.00 0.00 0.00 72 1012.9
20260507214048 7 211 8.0 24.1 0.00 0.00 0.00 72 1012.9
20260507213548 8 261 9.7 25.7 0.00 0.00 0.00 71 1012.9
20260507213102 8 200 12.9 30.6 0.00 0.00 0.00 71 1012.8
20260507212550 8 167 14.5 30.6 0.00 0.00 0.00 71 1012.8
20260507212048 8 224 12.9 30.6 0.00 0.00 0.00 71 1012.7
20260507211554 8 159 14.5 30.6 0.00 0.00 0.00 71 1012.6
20260507211048 8 192 12.9 27.4 0.00 0.00 0.00 71 1012.7
20260507210548 8 227 11.3 27.4 0.00 0.00 0.00 70 1012.7
20260507210051 8 205 9.7 27.4 0.00 0.00 0.00 70 1012.9
20260507205550 8 227 12.9 25.7 0.00 0.00 0.00 70 1013.0
20260507205048 8 179 9.7 24.1 0.00 0.00 0.00 70 1013.0
20260507204553 8 182 8.0 22.5 0.00 0.00 0.00 70 1013.0
20260507204048 8 173 8.0 22.5 0.00 0.00 0.00 70 1012.9
20260507203552 8 240 4.8 22.5 0.00 0.00 0.00 70 1013.0
20260507203051 8 171 6.4 19.3 0.00 0.00 0.00 69 1013.0
20260507202552 8 175 6.4 12.9 0.00 0.00 0.00 69 1013.1
20260507202050 8 202 4.8 14.5 0.00 0.00 0.00 69 1013.1
20260507201550 8 210 1.6 14.5 0.00 0.00 0.00 69 1013.0
20260507201048 8 173 3.2 11.3 0.00 0.00 0.00 69 1013.0
20260507200550 8 205 4.8 16.1 0.00 0.00 0.00 68 1013.0
20260507200057 8 198 6.4 17.7 0.00 0.00 0.00 68 1013.0
20260507195546 8 218 9.7 17.7 0.00 0.00 0.00 68 1013.0
20260507195047 8 213 8.0 14.5 0.00 0.00 0.00 68 1012.9
20260507194617 8 213 6.4 17.7 0.00 0.00 0.00 68 1012.8
20260507194050 9 211 4.8 19.3 0.00 0.00 0.00 67 1012.8
20260507193550 9 202 9.7 19.3 0.00 0.00 0.00 67 1012.8
20260507193055 9 196 8.0 19.3 0.00 0.00 0.00 67 1012.8
20260507192550 9 160 8.0 19.3 0.00 0.00 0.00 67 1012.8
20260507192049 9 183 6.4 16.1 0.00 0.00 0.00 66 1012.8
20260507191554 9 209 6.4 17.7 0.00 0.00 0.00 66 1012.9
20260507191051 9 185 6.4 17.7 0.00 0.00 0.00 66 1012.8
20260507190550 9 218 9.7 17.7 0.00 0.00 0.00 66 1012.7
20260507190100 9 185 9.7 17.7 0.00 0.00 0.00 65 1012.9
20260507185550 10 215 8.0 16.1 0.00 0.00 0.00 65 1012.8
20260507185051 10 212 6.4 17.7 0.00 0.00 0.00 64 1012.8
20260507184554 10 165 8.0 19.3 0.00 0.00 0.00 64 1012.8
20260507184050 10 195 9.7 19.3 0.00 0.00 0.00 64 1012.6
20260507183550 10 236 8.0 24.1 0.00 0.00 0.00 63 1012.5
20260507183056 10 209 8.0 25.7 0.00 0.00 0.00 63 1012.5
20260507182550 10 225 9.7 25.7 0.00 0.00 0.00 62 1012.6
20260507182052 10 188 11.3 22.5 0.00 0.00 0.00 61 1012.4
20260507181558 10 181 8.0 30.6 0.00 0.00 0.00 61 1012.3
20260507181049 10 211 9.7 30.6 0.00 0.00 0.00 61 1012.3
20260507180552 10 188 14.5 30.6 0.00 0.00 0.00 60 1012.3
20260507180055 10 195 12.9 25.7 0.00 0.00 0.00 60 1012.2
20260507175549 10 227 9.7 30.6 0.00 0.00 0.00 60 1012.2
20260507175049 10 218 12.9 30.6 0.00 0.00 0.00 60 1012.3
20260507174601 10 207 14.5 27.4 0.00 0.00 0.00 61 1012.2
20260507174048 10 213 9.7 22.5 0.00 0.00 0.00 60 1012.2
20260507173550 10 182 11.3 32.2 0.00 0.00 0.00 59 1012.2
20260507173127 10 203 12.9 35.4 0.00 0.00 0.00 58 1012.1
20260507172550 11 192 12.9 37.0 0.00 0.00 0.00 57 1012.0
20260507172049 11 215 16.1 37.0 0.00 0.00 0.00 56 1012.0
20260507171608 11 227 16.1 30.6 0.00 0.00 0.00 56 1012.1
20260507171050 11 242 14.5 25.7 0.00 0.00 0.00 57 1012.1
20260507170550 11 245 11.3 25.7 0.00 0.00 0.00 56 1012.3
20260507170110 11 210 9.7 32.2 0.00 0.00 0.00 57 1012.4
20260507165549 11 189 11.3 32.2 0.00 0.00 0.00 58 1012.4
20260507165049 11 148 12.9 27.4 0.00 0.00 0.00 58 1012.4
20260507164559 11 178 12.9 27.4 0.00 0.00 0.00 58 1012.4
20260507164050 11 190 11.3 27.4 0.00 0.00 0.00 57 1012.5
20260507163550 11 213 8.0 24.1 0.00 0.00 0.00 56 1012.6
20260507163054 11 208 11.3 24.1 0.00 0.00 0.00 56 1012.5
20260507162550 11 182 9.7 25.7 0.00 0.00 0.00 57 1012.5
20260507162049 11 203 12.9 25.7 0.00 0.00 0.00 56 1012.5
20260507161604 11 217 11.3 29.0 0.00 0.00 0.00 57 1012.5
20260507161046 11 236 11.3 29.0 0.00 0.00 0.00 56 1012.5
20260507160549 11 198 16.1 25.7 0.00 0.00 0.00 55 1012.5
20260507160051 11 200 11.3 29.0 0.00 0.00 0.00 55 1012.6
20260507155545 11 195 12.9 29.0 0.00 0.00 0.00 55 1012.6
20260507155048 11 237 11.3 37.0 0.00 0.00 0.00 54 1012.6
20260507154554 11 181 16.1 37.0 0.00 0.00 0.00 54 1012.7
20260507154050 11 189 12.9 25.7 0.00 0.00 0.00 53 1012.6
20260507153549 11 183 12.9 25.7 0.00 0.00 0.00 53 1012.6
20260507153057 11 202 12.9 24.1 0.00 0.00 0.00 54 1012.7
20260507152548 11 169 11.3 20.9 0.00 0.00 0.00 55 1012.6
20260507152049 11 192 11.3 24.1 0.00 0.00 0.00 55 1012.5
20260507151551 11 196 8.0 25.7 0.00 0.00 0.00 56 1012.6
20260507151047 11 230 9.7 27.4 0.00 0.00 0.00 56 1012.7
20260507150548 11 174 11.3 27.4 0.00 0.00 0.00 57 1012.7
20260507150100 11 185 9.7 27.4 0.00 0.00 0.00 58 1012.8
20260507145549 11 234 14.5 27.4 0.00 0.00 0.00 58 1012.8
20260507145049 11 168 11.3 24.1 0.00 0.00 0.00 59 1012.8
20260507144557 11 186 8.0 22.5 0.00 0.00 0.00 60 1012.8
20260507144049 10 176 11.3 33.8 0.00 0.00 0.00 60 1012.8
20260507143545 10 204 11.3 33.8 0.00 0.00 0.00 61 1012.8